Retour au catalogue

THORAD DELTA 1 DEB

ActifLEO
NORAD 42617·DEBRIS·🇺🇸 United States

Lancé Nov 15, 1974 depuis Vandenberg Space Force Base

Loading…

Prochains Passages (prochaines 24 heures)

TLE

FraisSource: Space-Track

Époque: Sep 14, 2026, 07:13 UTC

1 42617U 74089GJ  26257.30133282  .00000023  00000-0  57151-3 0  9999
2 42617 101.4633 286.3944 0181432  15.9922  44.8859 12.19465969570533

Suivez THORAD DELTA 1 DEB en temps réel avec AllMySat

Download on the App Store